EDT,Max TemperatureF,Mean TemperatureF,Min TemperatureF,Max Dew PointF,MeanDew PointF,Min DewpointF,Max Humidity, Mean Humidity, Min Humidity, Max Sea Level PressureIn, Mean Sea Level PressureIn, Min Sea Level PressureIn, Max VisibilityMiles, Mean VisibilityMiles, Min VisibilityMiles, Max Wind SpeedMPH, Mean Wind SpeedMPH, Max Gust SpeedMPH,PrecipitationIn, CloudCover, Events, WindDirDegrees
2013-9-1,82,73,64,72,68,64,100,96,66,30.00,29.96,29.91,10,5,0,13,1,28,0.45,5,Fog-Rain-Thunderstorm,248
2013-9-2,86,75,64,72,68,64,100,85,58,30.00,29.95,29.90,10,7,0,7,1,,0.01,3,Fog-Thunderstorm,218
2013-9-3,86,74,62,68,64,59,100,77,45,30.09,29.98,29.91,10,9,4,8,2,,0.00,1,,314
2013-9-4,82,68,55,68,61,54,100,81,54,30.20,30.15,30.08,10,9,3,7,1,,0.00,0,,74
2013-9-5,82,68,55,68,60,55,100,75,45,30.22,30.19,30.15,10,10,7,6,1,,0.00,0,,206
2013-9-6,77,66,55,63,59,54,100,80,57,30.30,30.23,30.18,10,10,10,8,1,,0.00,3,,76
2013-9-7,80,68,57,68,62,55,100,83,57,30.23,30.16,30.07,10,9,0,9,2,,0.00,3,Fog,204
2013-9-8,80,70,59,70,65,59,100,85,54,30.10,30.06,30.03,10,8,2,8,1,,0.00,2,,152
2013-9-9,82,72,62,70,66,63,100,84,58,30.25,30.18,30.10,10,8,1,8,1,,0.00,2,,89
2013-9-10,84,72,60,70,67,61,100,86,51,30.33,30.28,30.24,10,7,0,6,1,,0.00,2,Fog,185
2013-9-11,86,75,64,70,68,64,100,88,51,30.30,30.25,30.17,10,7,0,10,1,,0.00,2,Fog-Thunderstorm,248
2013-9-12,87,76,64,72,67,63,100,85,52,30.16,30.05,29.95,10,8,3,10,2,17,0.02,2,Rain-Thunderstorm,260
2013-9-13,78,68,57,63,55,46,94,64,39,30.02,29.94,29.90,10,10,10,13,4,21,0.00,2,,308
2013-9-14,71,58,44,54,49,45,100,74,46,30.21,30.12,30.03,10,10,10,8,1,,0.00,1,,97
2013-9-15,77,64,50,61,56,50,100,83,54,30.31,30.25,30.20,10,10,5,7,1,,0.00,3,,184
2013-9-16,78,66,53,63,58,54,100,79,47,30.29,30.21,30.17,10,8,0,10,1,,0.00,4,Fog-Rain,346
2013-9-17,66,60,53,57,53,50,100,80,60,30.42,30.35,30.29,10,10,7,9,3,,0.00,7,,57
2013-9-18,64,58,53,59,53,50,100,81,68,30.39,30.33,30.26,10,10,10,5,2,,0.00,8,,85
2013-9-19,69,62,55,64,61,55,100,92,73,30.27,30.22,30.16,10,9,2,5,0,,0.00,7,,18
2013-9-20,82,71,60,68,64,61,100,86,57,30.17,30.10,30.01,10,7,2,12,2,21,0.00,7,,119
2013-9-21,69,64,60,68,64,61,100,97,88,30.03,29.90,29.78,10,5,0,13,3,21,0.69,8,Fog-Rain,165
2013-9-22,73,60,48,61,54,48,100,79,46,30.01,29.91,29.84,10,8,0,10,1,16,0.00,2,Fog,1
2013-9-23,71,60,50,57,52,50,100,84,53,30.16,30.10,30.02,10,10,4,6,0,,0.00,4,,197
2013-9-24,77,64,51,59,56,52,100,83,50,30.17,30.09,30.01,10,9,2,6,1,,0.00,4,,151
2013-9-25,64,58,53,61,58,54,100,97,88,30.03,30.00,29.96,10,6,2,5,0,,0.21,6,Rain,69
2013-9-26,71,62,53,59,56,50,100,85,46,30.14,30.05,29.98,10,8,2,8,1,,0.00,5,,77
2013-9-27,71,58,46,55,53,46,100,80,50,30.28,30.20,30.14,10,9,2,9,1,,0.00,3,,72
2013-9-28,68,60,51,55,53,50,100,82,60,30.35,30.29,30.26,10,10,10,8,2,,0.00,5,,73
2013-9-29,69,60,50,57,53,50,100,84,60,30.27,30.20,30.12,10,10,10,6,1,,0.00,6,,92
2013-9-30,73,62,51,61,56,52,100,83,50,30.17,30.13,30.08,10,10,5,6,1,,0.00,4,,176